Home   Weather   A Coruña   Past weeks

Flag for Spain Past Weather in A Coruña, Spain — Yesterday and Last 2 Weeks

Now
60 °F

Passing clouds.


Feels Like: 60 °F
Forecast: 57 / 67 °F
Wind: 6 mph from West

Location: La Coruna

Current Time: Oct 1, 2016 at 12:08:26 AM

Latest Report: Sep 30, 2016 at 11:00 PM


Visibility: 9 mi

Pressure: 30.05 "Hg

Humidity: 88%

Dew Point: 56 °F

Location of A CoruñaLocation

Past Weather in A Coruña — Graph

°F

A Coruña Temperature Yesterday

Maximum temperature yesterday: 64 °F (at 10:00 AM)
Minimum temperature yesterday: 60 °F (at 1:00 PM)
Average temperature yesterday: 62 °F

High & Low Weather Summary for the Past Weeks

 TemperatureHumidityPressure
High72 °F (Sep 23, 2:00 PM)99% (Sep 27, 8:00 AM)30.42 "Hg (Sep 27, 8:00 AM)
Low55 °F (Sep 21, 8:00 AM)63% (Sep 25, 2:00 PM)29.99 "Hg (Sep 24, 7:00 PM)
Average63 °F85%30.21 "Hg
* Reported Sep 15 10:00 PM — Sep 30 10:00 PM, A Coruña, Weather by CustomWeather, © 2016

Note: Actual official high and low records may vary slightly from our data, if they occured in-between our weather recording intervals... More about our weather records

Advertising

A Coruña Weather History for the Previous 24 Hours

Scroll right to see more
 ConditionsComfort  
Time TempWeatherWind HumidityBarometerVisibility
10:00 PM
Fri, Sep 30
60 °FCool.3 mph86%30.04 "Hg11 mi
9:00 PM61 °FCool.3 mph87%30.04 "Hg10 mi
8:00 PM62 °FFog.2 mph85%30.03 "Hg10 mi
7:00 PM63 °FMild.3 mph86%30.03 "Hg12 mi
6:00 PM64 °FMild.5 mph82%30.02 "Hg12 mi
5:00 PM64 °FFog.2 mph85%30.03 "Hg12 mi
4:00 PM63 °FMild.2 mph90%30.04 "Hg12 mi
3:00 PM61 °FCool.2 mph97%30.06 "Hg10 mi
2:00 PM60 °FLow clouds.6 mph98%30.07 "Hg1 mi
1:00 PM60 °FRain. Cloudy.10 mph98%30.07 "Hg1 mi
12:00 PM63 °FDrizzle. Cloudy.7 mph93%30.06 "Hg5 mi
11:00 AM64 °FMild.6 mph88%30.05 "Hg9 mi
10:00 AM64 °FMild.2 mph85%30.04 "Hg11 mi
8:00 AM63 °FMild.1 mph91%30.04 "Hg8 mi
6:00 AM63 °FMild.2 mph93%30.04 "Hg11 mi
5:00 AM63 °FOvercast.3 mph93%30.05 "Hg9 mi
4:00 AM63 °FMild.1 mph92%30.06 "Hg7 mi
3:00 AM63 °FMild.2 mph94%30.09 "Hg8 mi
2:00 AM63 °FMild.2 mph93%30.10 "Hg7 mi
1:00 AM63 °FMild.1 mph93%30.12 "Hg7 mi
12:00 AM62 °FCool.3 mph92%30.14 "Hg6 mi
Weather by CustomWeather, © 2016

See weather overviewHow to use our weather pages